Location: The Saddle
(36.8333°N, 80.3417°W)
Time: 06:04:22
(UTC-04:00)

Courier 1B - Pass Details

Date: 20 September 2024
Orbit: 962 x 1208 km, 28.3° (Epoch: 05 October)

Event Time Altitude Azimuth Distance (km) Brightness Sun altitude
Rises 13:43:41 0° 241° (WSW) 3,709 10.9 53.2°
Reaches altitude 10° 13:46:30 10° 233° (SW) 2,791 10.5 53.1°
Maximum altitude 13:52:38 37° 169° (SSE) 1,584 10.1 52.8°
Drops below altitude 10° 13:59:09 10° 104° (ESE) 2,958 10.1 52.4°
Sets 14:02:13 0° 97° (E) 3,957 10.6 52.2°
